Regional Weather Roundup
Issued by NWS Kansas City/Pleasant Hill, MO

Home | Current Version | Previous Version | Text Only | Print | Product List | Glossary On
Versions: 1 2 3 4 5 6 7 8 9 10 11 12 13 14 15 16 17 18 19 20 21 22 23 24 25 26 27 28 29 30 31 32 33 34 35 36 37 38 39 40 41 42 43 44 45 46 47 48 49 50
000
ASUS43 KEAX 261910
RWREAX

WEATHER ROUNDUP FOR EASTERN KANSAS AND NORTHWEST MISSOURI
NATIONAL WEATHER SERVICE KANSAS CITY/PLEASANT HILL MO
200 PM CDT THU MAY 26 2016

KSZ040-057-103>105-MOZ028-029-037-043-262000-
...KANSAS CITY METROPOLITAN AREA...

CITY           SKY/WX    TMP DP  RH WIND       PRES   REMARKS
K.C. INTL      CLOUDY    75  63  66 SE18      29.83F
K.C. DOWNTOWN  CLOUDY    75  68  78 E12       29.82F
LEES SUMMIT    CLOUDY    79  68  69 E14       29.87F
OLATHE - IXD   PTSUNNY   82  72  71 SE16G25   29.83F
OLATHE - OJC   MOSUNNY   82  72  71 SE13G23   29.83F
LAWRENCE       CLOUDY    81  73  76 SE16      29.78F

$$

MOZ001>008-011>017-020>025-030>033-038>040-044>046-053-054-262000-
...NORTHERN AND CENTRAL MISSOURI...

CITY           SKY/WX    TMP DP  RH WIND       PRES   REMARKS
ST. JOSEPH     PTSUNNY   72  67  84 E7        29.82F
MOSBY          TSTM      68  61  77 S6        29.88R
WARRENSBURG    CLOUDY    81  66  61 E6        29.88R
WHITEMAN AFB   PTSUNNY   83  69  61 E8        29.89S
CLINTON        SUNNY     82  72  69 S9G16     29.88S
SEDALIA        SUNNY     86  66  51 NE7       29.91F
WARSAW         NOT AVBL
CHILLICOTHE      N/A     76  64  66 SE6       29.85F
KIRKSVILLE     CLOUDY    77  64  64 W3        29.88F

$$

MOZ041-047>049-056>058-063>065-088>090-097-262000-
...EASTERN AND SOUTHERN MISSOURI...

CITY           SKY/WX    TMP DP  RH WIND       PRES   REMARKS
ST. LOUIS INTL CLOUDY    76  65  68 CALM      29.92F
SPIRIT OF STL  MOSUNNY  N/A N/A N/A S14       29.92R
COLUMBIA       SUNNY     87  63  44 VRB3      29.90F
JEFFERSON CITY SUNNY     85  66  53 CALM      29.89F
ROLLA          SUNNY     80  68  66 SW6       29.92S
SPRINGFIELD    MOSUNNY   86  70  58 S15       29.90F HX  90
BRANSON        PTSUNNY   86  72  62 S9        29.93F HX  92
JOPLIN         MOSUNNY   86  71  60 S20G25    29.87F HX  91
WEST PLAINS    PTSUNNY   84  72  67 S14G20    29.95F

$$

IAZ060-094-KSZ022-034>040-054-083-096-NEZ052-066-093-262000-
...KANSAS...SOUTHEAST NEBRASKA AND IOWA...

CITY           SKY/WX    TMP DP  RH WIND       PRES   REMARKS
TOPEKA         TSTM      79  73  82 SE12      29.74F
MANHATTAN      CLOUDY    83  71  67 S15       29.73F
EMPORIA        CLOUDY    80  71  74 S15G24    29.77F
CHANUTE        PTSUNNY   85  72  65 S21G29    29.81F HX  91
WICHITA        CLOUDY    78  68  71 E9        29.73F
OMAHA          MOSUNNY   84  59  42 E12       29.82F
LINCOLN        MOSUNNY   80  65  59 E16       29.77F
FALLS CITY     CLOUDY    74  68  81 E12       29.78F
LAMONI         PTSUNNY   75  65  70 E8        29.80F
DES MOINES     CLOUDY    82  64  54 S8        29.86F

$$




USA.gov is the U.S. government's official web portal to all federal, state and local government web resources and services.